This demonstration page uses our WeatherBlox Daily Observations layout. Learn more.

Left ArrowRight Arrow

41.55636, -103.73856

Hourly Observations for November 8, 2019

Temp ( °F °C ) Dew Point ( °F °C ) Humidity (%) Winds ( mph kmh ) Pressure ( in mb ) Visibility ( mi km ) Precip ( " mm )
12:58 am 00:58 Clear 36 2.3 25 -4.1 63 63 S 7 11 30.42 1030 10 16.0934 N/A
1:58 am 01:58 Mostly Clear 36 2.2 26 -3.5 66 66 N N/A 30.41 1030 10 16.0934 N/A
2:58 am 02:58 Clear 34 1.2 27 -2.8 75 75 WSW 6 9 30.4 1029 10 16.0934 N/A
3:58 am 03:58 Partly Cloudy 36 2.1 27 -2.6 71 71 SW 14 22 30.37 1029 10 16.0934 N/A
4:58 am 04:58 Mostly Clear 36 2.2 28 -2.3 72 72 SSW 21 33 30.33 1027 10 16.0934 N/A
5:58 am 05:58 Clear 35 1.7 28 -2.4 75 75 SW 7 11 30.31 1026 10 16.0934 N/A
6:58 am 06:58 Clear 37 3 29 -1.9 71 71 SW 13 20 30.27 1025 10 16.0934 N/A
7:58 am 07:58 Clear 34 1.3 28 -2.4 77 77 N N/A 30.26 1025 10 16.0934 N/A
8:58 am 08:58 Clear 35 1.4 26 -3.3 71 71 WSW 6 9 30.24 1024 10 16.0934 N/A
9:58 am 09:58 Clear 31 -0.4 23 -5 71 71 WSW 6 9 30.25 1025 10 16.0934 N/A
10:58 am 10:58 Clear 32 -0.2 23 -5 70 70 W 6 9 30.25 1025 10 16.0934 N/A
11:58 am 11:58 Clear 31 -0.3 22 -5.4 69 69 W 12 19 30.29 1026 10 16.0934 N/A
12:58 pm 12:58 Clear 29 -1.6 22 -5.6 74 74 WSW 7 11 30.3 1026 10 16.0934 N/A
1:58 pm 13:58 Sunny 31 -0.6 22 -5.6 69 69 WSW 7 11 30.29 1026 10 16.0934 N/A
2:58 pm 14:58 Sunny 41 4.8 25 -4.1 53 53 W 9 15 30.27 1025 10 16.0934 N/A
3:58 pm 15:58 Sunny 49 9.5 20 -6.5 32 32 W 14 22 30.23 1024 10 16.0934 N/A
4:58 pm 16:58 Sunny 55 12.5 18 -7.9 24 24 WNW 17 28 30.2 1023 10 16.0934 N/A
5:58 pm 17:58 Sunny 60 15.4 14 -9.8 17 17 NW 23 37 30.18 1022 10 16.0934 N/A
6:58 pm 18:58 Sunny 63 17 13 -10.5 14 14 NW 24 39 30.13 1020 10 16.0934 N/A
7:58 pm 19:58 Sunny 63 17.3 15 -9.6 15 15 WNW 23 37 30.12 1020 10 16.0934 N/A
8:58 pm 20:58 Sunny 63 17.2 15 -9.2 16 16 NW 23 37 30.11 1020 10 16.0934 N/A
9:58 pm 21:58 Sunny 63 17.2 15 -9.3 16 16 NW 22 35 30.14 1021 10 16.0934 N/A
10:58 pm 22:58 Sunny 60 15.8 20 -6.7 21 21 NNW 12 19 30.16 1021 10 16.0934 N/A
11:58 pm 23:58 Clear 53 11.7 21 -6.3 28 28 WNW 5 7 30.2 1023 10 16.0934 N/A

Powered by AerisWeather